Flag for China Weather past 2 weeks in Zhengzhou, Henan, China

41 °F


Feels Like: 33 °F
Forecast: 15 / 28 °F
Wind: 15 mph from Northwest

Location: Zhengzhou Airport

Current Time: Nov 25, 2015 at 4:53:58 PM

Latest Report: Nov 25, 2015 at 4:00 PM

Visibility: 10 mi

Pressure: 30.33 "Hg

Humidity: 49%

Dew point: 23 °F

Location of ZhengzhouLocation

Historic Weather in Zhengzhou — Graph


Zhengzhou temperature yesterday

Maximum temperature yesterday: 27 °F (at 12:00 AM)
Minimum temperature yesterday: 25 °F (at 6:00 AM)
Average temperature yesterday: 26 °F

Past Weeks' High & Low Weather Summary

High57 °F (Nov 13, 3:00 PM)100% (Nov 15, 4:00 PM)30.66 "Hg (Nov 15, 4:00 PM)
Low19 °F (Nov 25, 4:00 AM)53% (Nov 25, 3:00 PM)29.98 "Hg (Nov 14, 3:00 PM)
Average44 °F88%30.28 "Hg
* Reported Nov 10 3:00 PM — Nov 25 3:00 PM, Zhengzhou, Weather by CustomWeather, © 2015

Note: Actual official high and low records may vary slightly from our data, if they occured in-between our weather recording intervals... More about our weather records


Zhengzhou weather history for previous 24 hours

Time TempWeatherWind HumidityBarometerVisibility
3:00 PM
Wed, Nov 25
43 °FClear.17 mph53%30.33 "Hg4 mi
2:00 PM36 °FFog.6 mph75%30.30 "Hg2 mi
1:00 PM32 °FIce fog.8 mph87%30.33 "Hg1 mi
12:00 PM28 °FIce fog.8 mph93%30.39 "Hg1 mi
11:00 AM28 °FIce fog.8 mph93%30.39 "Hg1 mi
10:00 AM27 °FIce fog.8 mph93%30.39 "Hg1 mi
9:00 AM25 °FIce fog.3 mph93%30.39 "Hg1 mi
8:00 AM23 °FIce fog.3 mph100%30.42 "Hg1 mi
7:00 AM23 °FIce fog.3 mph93%30.42 "Hg1 mi
6:00 AM23 °FIce fog.3 mph93%30.42 "Hg2 mi
5:00 AM21 °FIce fog.1 mph100%30.45 "Hg2 mi
4:00 AM19 °FIce fog.1 mph100%30.45 "Hg2 mi
3:00 AM21 °FIce fog.1 mph93%30.45 "Hg3 mi
2:00 AM25 °FIce fog.3 mph86%30.51 "Hg3 mi
1:00 AM25 °FIce fog.1 mph86%30.51 "Hg3 mi
12:00 AM25 °FIce fog.3 mph86%30.54 "Hg3 mi
11:00 PM
Tue, Nov 24
25 °FIce fog.1 mph86%30.57 "Hg3 mi
10:00 PM27 °FIce fog.3 mph80%30.57 "Hg3 mi
9:00 PM27 °FIce fog.6 mph80%30.60 "Hg3 mi
8:00 PM27 °FIce fog.6 mph80%30.60 "Hg3 mi
7:00 PM27 °FIce fog.8 mph80%30.57 "Hg3 mi
6:00 PM27 °FIce fog.8 mph86%30.57 "Hg2 mi
5:00 PM27 °FIce fog.8 mph86%30.57 "Hg2 mi
4:00 PM27 °FIce fog.8 mph93%30.57 "Hg2 mi
Weather by CustomWeather, © 2015

See weather overviewHow to use our weather pages